Time,TemperatureF,DewpointF,PressureIn,WindDirection,WindDirectionDegrees,WindSpeedMPH,WindSpeedGustMPH,Humidity,HourlyPrecipIn,Conditions,Clouds,dailyrainin,SoftwareType,DateUTC
2013-04-11 00:02:00,23.0,19.0,30.30,WSW,240,0.0,-999.0,85,-99.99,,,-99.99,,2013-04-11 06:02:00,
2013-04-11 00:12:00,23.0,19.0,30.30,WSW,240,0.0,-999.0,85,-99.99,,,-99.99,,2013-04-11 06:12:00,
2013-04-11 00:21:00,23.0,19.0,30.30,WSW,240,0.0,-999.0,85,-99.99,,,-99.99,,2013-04-11 06:21:00,
2013-04-11 00:32:00,23.0,19.0,30.29,West,279,0.0,-999.0,85,-99.99,,,-99.99,,2013-04-11 06:32:00,
2013-04-11 00:42:00,23.0,19.0,30.29,West,279,0.0,-999.0,85,-99.99,,,-99.99,,2013-04-11 06:42:00,
2013-04-11 00:52:00,23.0,19.0,30.29,West,279,2.0,-999.0,85,-99.99,,,-99.99,,2013-04-11 06:52:00,
2013-04-11 01:02:00,23.0,19.0,30.28,WNW,292,2.0,-999.0,84,-99.99,,,-99.99,,2013-04-11 07:02:00,
2013-04-11 01:12:00,23.0,19.0,30.28,WNW,292,2.0,-999.0,84,-99.99,,,-99.99,,2013-04-11 07:12:00,
2013-04-11 01:21:00,24.0,20.0,30.28,WNW,282,1.0,-999.0,83,-99.99,,,-99.99,,2013-04-11 07:21:00,
2013-04-11 01:32:00,24.0,19.0,30.27,West,271,0.0,-999.0,82,-99.99,,,-99.99,,2013-04-11 07:32:00,
2013-04-11 01:42:00,24.0,19.0,30.27,West,271,0.0,-999.0,82,-99.99,,,-99.99,,2013-04-11 07:42:00,
2013-04-11 01:52:00,24.0,20.0,30.26,SSW,198,1.0,-999.0,83,-99.99,,,-99.99,,2013-04-11 07:52:00,
2013-04-11 02:02:00,24.0,20.0,30.26,SSW,198,0.0,-999.0,83,-99.99,,,-99.99,,2013-04-11 08:02:00,
2013-04-11 02:12:00,24.0,20.0,30.26,SSW,198,0.0,-999.0,83,-99.99,,,-99.99,,2013-04-11 08:12:00,
2013-04-11 02:22:00,24.0,19.0,30.23,SSW,198,0.0,-999.0,82,-99.99,,,-99.99,,2013-04-11 08:22:00,
2013-04-11 02:32:00,24.0,20.0,30.23,SSW,198,0.0,-999.0,83,-99.99,,,-99.99,,2013-04-11 08:32:00,
2013-04-11 02:42:00,24.0,20.0,30.23,SSW,198,0.0,-999.0,83,-99.99,,,-99.99,,2013-04-11 08:42:00,
2013-04-11 02:51:00,24.0,20.0,30.23,ENE,77,1.0,-999.0,83,-99.99,,,-99.99,,2013-04-11 08:51:00,
2013-04-11 03:01:00,24.0,19.0,30.22,ENE,78,0.0,-999.0,82,-99.99,,,-99.99,,2013-04-11 09:01:00,
2013-04-11 03:11:00,24.0,19.0,30.22,ENE,78,0.0,-999.0,82,-99.99,,,-99.99,,2013-04-11 09:11:00,
2013-04-11 03:22:00,25.0,20.0,30.20,East,88,0.0,-999.0,80,-99.99,,,-99.99,,2013-04-11 09:22:00,
2013-04-11 03:32:00,24.0,18.0,30.19,East,86,0.0,-999.0,79,-99.99,,,-99.99,,2013-04-11 09:32:00,
2013-04-11 03:42:00,24.0,18.0,30.19,East,86,0.0,-999.0,79,-99.99,,,-99.99,,2013-04-11 09:42:00,
2013-04-11 03:52:00,24.0,18.0,30.19,East,96,0.0,-999.0,79,-99.99,,,-99.99,,2013-04-11 09:52:00,
2013-04-11 04:02:00,24.0,19.0,30.18,East,96,0.0,-999.0,80,-99.99,,,-99.99,,2013-04-11 10:02:00,
2013-04-11 04:12:00,24.0,19.0,30.19,ENE,72,0.0,-999.0,81,-99.99,,,-99.99,,2013-04-11 10:12:00,
2013-04-11 04:22:00,24.0,19.0,30.19,ENE,72,0.0,-999.0,81,-99.99,,,-99.99,,2013-04-11 10:22:00,
2013-04-11 04:32:00,23.0,19.0,30.19,ENE,59,0.0,-999.0,83,-99.99,,,-99.99,,2013-04-11 10:32:00,
2013-04-11 04:41:00,23.0,19.0,30.19,ENE,59,0.0,-999.0,83,-99.99,,,-99.99,,2013-04-11 10:41:00,
2013-04-11 04:52:00,23.0,19.0,30.19,ENE,57,2.0,-999.0,86,-99.99,,,-99.99,,2013-04-11 10:52:00,
2013-04-11 05:02:00,23.0,19.0,30.19,ENE,57,2.0,-999.0,86,-99.99,,,-99.99,,2013-04-11 11:02:00,
2013-04-11 05:11:00,24.0,20.0,30.19,NE,38,5.0,-999.0,86,-99.99,,,-99.99,,2013-04-11 11:11:00,
2013-04-11 05:22:00,23.0,20.0,30.19,NNE,28,1.0,-999.0,88,-99.99,,,-99.99,,2013-04-11 11:22:00,
2013-04-11 05:32:00,24.0,21.0,30.20,NE,34,9.0,-999.0,88,-99.99,,,-99.99,,2013-04-11 11:32:00,
2013-04-11 05:42:00,24.0,21.0,30.20,NE,34,9.0,-999.0,88,-99.99,,,-99.99,,2013-04-11 11:42:00,
2013-04-11 05:52:00,24.0,21.0,30.20,NNE,29,1.0,-999.0,88,-99.99,,,-99.99,,2013-04-11 11:52:00,
2013-04-11 06:02:00,24.0,21.0,30.20,WNW,288,0.0,-999.0,87,-99.99,,,-99.99,,2013-04-11 12:02:00,
2013-04-11 06:12:00,24.0,21.0,30.20,WNW,288,0.0,-999.0,87,-99.99,,,-99.99,,2013-04-11 12:12:00,
2013-04-11 06:22:00,24.0,21.0,30.20,WNW,286,0.0,-999.0,87,-99.99,,,-99.99,,2013-04-11 12:22:00,
2013-04-11 06:32:00,24.0,20.0,30.20,WSW,238,2.0,-999.0,86,-99.99,,,-99.99,,2013-04-11 12:32:00,
2013-04-11 06:42:00,24.0,20.0,30.20,WSW,238,2.0,-999.0,86,-99.99,,,-99.99,,2013-04-11 12:42:00,
2013-04-11 06:52:00,23.0,20.0,30.22,WSW,240,5.0,-999.0,87,-99.99,,,-99.99,,2013-04-11 12:52:00,
2013-04-11 07:02:00,23.0,20.0,30.22,SW,227,5.0,-999.0,87,-99.99,,,-99.99,,2013-04-11 13:02:00,
2013-04-11 07:12:00,23.0,19.0,30.22,SW,223,7.0,-999.0,86,-99.99,,,-99.99,,2013-04-11 13:12:00,
2013-04-11 07:22:00,23.0,19.0,30.22,SW,223,7.0,-999.0,86,-99.99,,,-99.99,,2013-04-11 13:22:00,
2013-04-11 07:32:00,23.0,19.0,30.22,WSW,250,5.0,-999.0,84,-99.99,,,-99.99,,2013-04-11 13:32:00,
2013-04-11 07:42:00,23.0,19.0,30.22,WSW,250,5.0,-999.0,84,-99.99,,,-99.99,,2013-04-11 13:42:00,
2013-04-11 07:52:00,23.0,19.0,30.22,SW,227,6.0,-999.0,84,-99.99,,,-99.99,,2013-04-11 13:52:00,
2013-04-11 08:02:00,24.0,20.0,30.23,SW,218,3.0,-999.0,83,-99.99,,,-99.99,,2013-04-11 14:02:00,
2013-04-11 08:12:00,24.0,20.0,30.23,SW,218,3.0,-999.0,83,-99.99,,,-99.99,,2013-04-11 14:12:00,
2013-04-11 08:21:00,25.0,20.0,30.23,SW,215,0.0,-999.0,82,-99.99,,,-99.99,,2013-04-11 14:21:00,
2013-04-11 08:32:00,25.0,21.0,30.24,SW,215,0.0,-999.0,84,-99.99,,,-99.99,,2013-04-11 14:32:00,
2013-04-11 08:41:00,25.0,21.0,30.24,SW,215,0.0,-999.0,84,-99.99,,,-99.99,,2013-04-11 14:41:00,
2013-04-11 08:52:00,25.0,21.0,30.24,SW,215,0.0,-999.0,84,-99.99,,,-99.99,,2013-04-11 14:52:00,
2013-04-11 09:02:00,26.0,21.0,30.24,SSE,152,0.0,-999.0,82,-99.99,,,-99.99,,2013-04-11 15:02:00,
2013-04-11 09:12:00,26.0,22.0,30.24,SSE,153,0.0,-999.0,84,-99.99,,,-99.99,,2013-04-11 15:12:00,
2013-04-11 09:22:00,26.0,22.0,30.24,SSE,153,0.0,-999.0,84,-99.99,,,-99.99,,2013-04-11 15:22:00,
2013-04-11 09:32:00,27.0,23.0,30.25,SE,146,0.0,-999.0,86,-99.99,,,-99.99,,2013-04-11 15:32:00,
2013-04-11 09:42:00,27.0,23.0,30.25,SE,146,0.0,-999.0,86,-99.99,,,-99.99,,2013-04-11 15:42:00,
2013-04-11 09:52:00,28.0,24.0,30.24,South,170,1.0,-999.0,86,-99.99,,,-99.99,,2013-04-11 15:52:00,
2013-04-11 10:02:00,27.0,24.0,30.24,South,183,6.0,-999.0,88,-99.99,,,-99.99,,2013-04-11 16:02:00,
2013-04-11 10:12:00,27.0,24.0,30.24,South,183,6.0,-999.0,88,-99.99,,,-99.99,,2013-04-11 16:12:00,
2013-04-11 10:22:00,29.0,26.0,30.24,South,181,0.0,-999.0,87,-99.99,,,-99.99,,2013-04-11 16:22:00,
2013-04-11 10:32:00,30.0,26.0,30.24,South,177,2.0,-999.0,86,-99.99,,,-99.99,,2013-04-11 16:32:00,
2013-04-11 10:41:00,31.0,28.0,30.24,SSW,207,4.0,-999.0,87,-99.99,,,-99.99,,2013-04-11 16:41:00,
2013-04-11 10:52:00,31.0,28.0,30.24,SSW,207,4.0,-999.0,87,-99.99,,,-99.99,,2013-04-11 16:52:00,
2013-04-11 11:02:00,32.0,28.0,30.25,SSW,202,4.0,-999.0,86,-99.99,,,-99.99,,2013-04-11 17:02:00,
2013-04-11 11:12:00,32.0,28.0,30.25,SSW,202,4.0,-999.0,86,-99.99,,,-99.99,,2013-04-11 17:12:00,
2013-04-11 11:22:00,33.0,29.0,30.24,South,182,4.0,-999.0,86,-99.99,,,-99.99,,2013-04-11 17:22:00,
2013-04-11 11:32:00,34.0,29.0,30.24,SSW,208,6.0,-999.0,81,-99.99,,,-99.99,,2013-04-11 17:32:00,
2013-04-11 11:42:00,34.0,29.0,30.24,SSW,208,6.0,-999.0,81,-99.99,,,-99.99,,2013-04-11 17:42:00,
2013-04-11 11:52:00,35.0,29.0,30.24,SW,219,8.0,-999.0,80,-99.99,,,-99.99,,2013-04-11 17:52:00,
2013-04-11 12:02:00,37.0,30.0,30.23,SW,219,6.0,-999.0,77,-99.99,,,-99.99,,2013-04-11 18:02:00,
2013-04-11 12:12:00,37.0,30.0,30.23,SW,219,6.0,-999.0,77,-99.99,,,-99.99,,2013-04-11 18:12:00,
2013-04-11 12:22:00,38.0,32.0,30.23,SSW,195,4.0,-999.0,79,-99.99,,,-99.99,,2013-04-11 18:22:00,
2013-04-11 12:32:00,39.0,32.0,30.22,SSW,198,5.0,-999.0,77,-99.99,,,-99.99,,2013-04-11 18:32:00,
2013-04-11 12:42:00,39.0,32.0,30.22,SSW,198,5.0,-999.0,77,-99.99,,,-99.99,,2013-04-11 18:42:00,
2013-04-11 12:52:00,39.0,33.0,30.21,SSE,166,3.0,-999.0,78,-99.99,,,-99.99,,2013-04-11 18:52:00,
2013-04-11 13:03:00,41.0,34.0,30.20,SW,215,1.0,-999.0,76,-99.99,,,-99.99,,2013-04-11 19:03:00,
2013-04-11 13:13:00,41.0,34.0,30.20,SW,215,1.0,-999.0,76,-99.99,,,-99.99,,2013-04-11 19:13:00,
2013-04-11 13:22:00,42.0,33.0,30.19,SSW,194,4.0,-999.0,70,-99.99,,,-99.99,,2013-04-11 19:22:00,
2013-04-11 13:32:00,43.0,33.0,30.18,SSW,200,1.0,-999.0,67,-99.99,,,-99.99,,2013-04-11 19:32:00,
2013-04-11 13:42:00,43.0,33.0,30.18,SSW,200,1.0,-999.0,67,-99.99,,,-99.99,,2013-04-11 19:42:00,
2013-04-11 13:52:00,44.0,33.0,30.17,SW,230,1.0,-999.0,64,-99.99,,,-99.99,,2013-04-11 19:52:00,
2013-04-11 14:02:00,45.0,33.0,30.17,SW,227,1.0,-999.0,62,-99.99,,,-99.99,,2013-04-11 20:02:00,
2013-04-11 14:12:00,45.0,33.0,30.17,SW,227,1.0,-999.0,62,-99.99,,,-99.99,,2013-04-11 20:12:00,
2013-04-11 14:21:00,45.0,33.0,30.17,East,101,1.0,-999.0,62,-99.99,,,-99.99,,2013-04-11 20:21:00,
2013-04-11 14:33:00,45.0,32.0,30.16,SE,142,1.0,-999.0,61,-99.99,,,-99.99,,2013-04-11 20:33:00,
2013-04-11 14:42:00,45.0,32.0,30.16,SE,142,1.0,-999.0,61,-99.99,,,-99.99,,2013-04-11 20:42:00,
2013-04-11 14:52:00,43.0,32.0,30.16,ESE,105,8.0,-999.0,65,-99.99,,,-99.99,,2013-04-11 20:52:00,
2013-04-11 15:02:00,45.0,33.0,30.16,SE,133,0.0,-999.0,63,-99.99,,,-99.99,,2013-04-11 21:02:00,
2013-04-11 15:11:00,45.0,33.0,30.16,SE,133,0.0,-999.0,63,-99.99,,,-99.99,,2013-04-11 21:11:00,
2013-04-11 15:22:00,45.0,33.0,30.15,ESE,105,3.0,-999.0,62,-99.99,,,-99.99,,2013-04-11 21:22:00,
2013-04-11 15:32:00,45.0,32.0,30.16,ENE,77,0.0,-999.0,60,-99.99,,,-99.99,,2013-04-11 21:32:00,
2013-04-11 15:42:00,45.0,32.0,30.16,ENE,77,0.0,-999.0,60,-99.99,,,-99.99,,2013-04-11 21:42:00,
2013-04-11 15:53:00,46.0,34.0,30.15,SSW,205,0.0,-999.0,63,-99.99,,,-99.99,,2013-04-11 21:53:00,
2013-04-11 16:02:00,46.0,33.0,30.14,ESE,123,7.0,-999.0,60,-99.99,,,-99.99,,2013-04-11 22:02:00,
2013-04-11 16:13:00,46.0,33.0,30.14,ESE,123,7.0,-999.0,60,-99.99,,,-99.99,,2013-04-11 22:13:00,
2013-04-11 16:22:00,45.0,32.0,30.14,SE,132,5.0,-999.0,61,-99.99,,,-99.99,,2013-04-11 22:22:00,
2013-04-11 16:32:00,44.0,31.0,30.13,South,169,2.0,-999.0,60,-99.99,,,-99.99,,2013-04-11 22:32:00,
2013-04-11 16:43:00,44.0,31.0,30.13,South,169,2.0,-999.0,60,-99.99,,,-99.99,,2013-04-11 22:43:00,
2013-04-11 16:52:00,46.0,32.0,30.12,SSE,168,4.0,-999.0,58,-99.99,,,-99.99,,2013-04-11 22:52:00,
2013-04-11 17:03:00,46.0,32.0,30.12,ESE,109,1.0,-999.0,58,-99.99,,,-99.99,,2013-04-11 23:03:00,
2013-04-11 17:12:00,46.0,32.0,30.12,ESE,109,1.0,-999.0,58,-99.99,,,-99.99,,2013-04-11 23:12:00,
2013-04-11 17:22:00,45.0,32.0,30.12,SW,220,2.0,-999.0,59,-99.99,,,-99.99,,2013-04-11 23:22:00,
2013-04-11 17:32:00,45.0,31.0,30.11,South,189,2.0,-999.0,58,-99.99,,,-99.99,,2013-04-11 23:32:00,
2013-04-11 17:42:00,45.0,31.0,30.11,South,189,2.0,-999.0,58,-99.99,,,-99.99,,2013-04-11 23:42:00,
2013-04-11 17:52:00,45.0,31.0,30.11,SSE,163,3.0,-999.0,58,-99.99,,,-99.99,,2013-04-11 23:52:00,
2013-04-11 18:02:00,45.0,31.0,30.11,SE,145,3.0,-999.0,58,-99.99,,,-99.99,,2013-04-12 00:02:00,
2013-04-11 18:11:00,45.0,31.0,30.11,SE,145,3.0,-999.0,58,-99.99,,,-99.99,,2013-04-12 00:11:00,
2013-04-11 18:21:00,45.0,31.0,30.10,SE,130,3.0,-999.0,57,-99.99,,,-99.99,,2013-04-12 00:21:00,
2013-04-11 18:32:00,45.0,31.0,30.11,ESE,117,5.0,-999.0,58,-99.99,,,-99.99,,2013-04-12 00:32:00,
2013-04-11 18:42:00,45.0,31.0,30.11,ESE,117,5.0,-999.0,58,-99.99,,,-99.99,,2013-04-12 00:42:00,
2013-04-11 18:52:00,45.0,31.0,30.10,East,96,3.0,-999.0,57,-99.99,,,-99.99,,2013-04-12 00:52:00,
2013-04-11 19:02:00,45.0,31.0,30.10,SE,136,0.0,-999.0,57,-99.99,,,-99.99,,2013-04-12 01:02:00,
2013-04-11 19:11:00,45.0,31.0,30.10,SE,136,0.0,-999.0,57,-99.99,,,-99.99,,2013-04-12 01:11:00,
2013-04-11 19:22:00,44.0,31.0,30.10,SE,136,0.0,-999.0,59,-99.99,,,-99.99,,2013-04-12 01:22:00,
2013-04-11 19:42:00,44.0,31.0,30.10,SE,136,0.0,-999.0,59,-99.99,,,-99.99,,2013-04-12 01:42:00,
2013-04-11 19:52:00,43.0,30.0,30.10,SE,142,0.0,-999.0,60,-99.99,,,-99.99,,2013-04-12 01:52:00,
2013-04-11 20:02:00,43.0,30.0,30.10,SE,142,0.0,-999.0,59,-99.99,,,-99.99,,2013-04-12 02:02:00,
2013-04-11 20:12:00,43.0,30.0,30.10,SE,142,0.0,-999.0,59,-99.99,,,-99.99,,2013-04-12 02:12:00,
2013-04-11 20:22:00,42.0,29.0,30.10,SE,142,0.0,-999.0,60,-99.99,,,-99.99,,2013-04-12 02:22:00,
2013-04-11 20:32:00,42.0,29.0,30.10,SE,142,0.0,-999.0,60,-99.99,,,-99.99,,2013-04-12 02:32:00,
2013-04-11 20:42:00,42.0,29.0,30.10,SE,142,0.0,-999.0,60,-99.99,,,-99.99,,2013-04-12 02:42:00,
2013-04-11 20:52:00,42.0,30.0,30.10,SE,142,0.0,-999.0,61,-99.99,,,-99.99,,2013-04-12 02:52:00,
2013-04-11 21:02:00,42.0,31.0,30.10,WSW,240,0.0,-999.0,64,-99.99,,,-99.99,,2013-04-12 03:02:00,
2013-04-11 21:11:00,42.0,31.0,30.10,WSW,240,0.0,-999.0,64,-99.99,,,-99.99,,2013-04-12 03:11:00,
2013-04-11 21:22:00,41.0,31.0,30.11,NNW,329,0.0,-999.0,67,-99.99,,,-99.99,,2013-04-12 03:22:00,
2013-04-11 21:33:00,40.0,31.0,30.11,NW,313,0.0,-999.0,69,-99.99,,,-99.99,,2013-04-12 03:33:00,
2013-04-11 21:43:00,40.0,31.0,30.11,NW,313,0.0,-999.0,69,-99.99,,,-99.99,,2013-04-12 03:43:00,
2013-04-11 21:52:00,39.0,30.0,30.11,NNW,343,0.0,-999.0,71,-99.99,,,-99.99,,2013-04-12 03:52:00,
2013-04-11 22:02:00,37.0,30.0,30.12,NNE,12,5.0,-999.0,76,-99.99,,,-99.99,,2013-04-12 04:02:00,
2013-04-11 22:12:00,37.0,30.0,30.12,NNE,12,5.0,-999.0,76,-99.99,,,-99.99,,2013-04-12 04:12:00,
2013-04-11 22:22:00,37.0,31.0,30.12,NNE,30,6.0,-999.0,78,-99.99,,,-99.99,,2013-04-12 04:22:00,
2013-04-11 22:33:00,37.0,31.0,30.12,NNE,31,7.0,-999.0,80,-99.99,,,-99.99,,2013-04-12 04:33:00,
2013-04-11 22:42:00,37.0,31.0,30.12,NNE,31,7.0,-999.0,80,-99.99,,,-99.99,,2013-04-12 04:42:00,
2013-04-11 22:52:00,37.0,32.0,30.12,NNE,30,6.0,-999.0,83,-99.99,,,-99.99,,2013-04-12 04:52:00,
2013-04-11 23:02:00,37.0,33.0,30.11,NE,36,6.0,-999.0,84,-99.99,,,-99.99,,2013-04-12 05:02:00,
2013-04-11 23:11:00,37.0,33.0,30.11,NE,36,6.0,-999.0,84,-99.99,,,-99.99,,2013-04-12 05:11:00,
2013-04-11 23:22:00,37.0,33.0,30.11,NNE,28,8.0,-999.0,84,-99.99,,,-99.99,,2013-04-12 05:22:00,
2013-04-11 23:32:00,37.0,32.0,30.11,NNE,12,6.0,-999.0,83,-99.99,,,-99.99,,2013-04-12 05:32:00,
2013-04-11 23:42:00,37.0,32.0,30.11,NNE,12,6.0,-999.0,83,-99.99,,,-99.99,,2013-04-12 05:42:00,
2013-04-11 23:52:00,37.0,32.0,30.11,NNE,28,6.0,-999.0,82,-99.99,,,-99.99,,2013-04-12 05:52:00,